Location: *
(38.3914°N, 75.0697°W)
Time: 06:29:40
(UTC+00:00)

ARGOS - Pass Details

Date: 17 February 2020
Orbit: 819 x 835 km, 98.5° (Epoch: 09 April)

Event Time Altitude Azimuth Distance (km) Brightness Sun altitude
Exits shadow 00:15:33 36° 95° (E) 1,291 3.6 -19.5°
Maximum altitude 00:16:33 39° 70° (ENE) 1,222 3.6 -19.7°
Drops below altitude 10° 00:21:33 10° 3° (N) 2,452 5.6 -20.7°
Sets 00:24:03 0° 356° (N) 3,392 6.4 -21.2°
